GW1337 Weather Reports


time (UTC)temp
C
wind
direction
speed
KPH
gust
KPH
rain 1hr
cm
rain 24hr
cm
rain mn
cm
humidity
%
barometer
mb
20260506231914 20 11 1.6 1.6 0.00 0.10 0.10 84 1009.4
20260506231412 20 11 0.0 1.6 0.00 0.10 0.10 84 1009.2
20260506230909 20 11 0.0 1.6 0.00 0.10 0.10 83 1009.3
20260506230405 20 7 0.0 1.6 0.00 0.10 0.10 83 1009.2
20260506225901 20 8 0.0 1.6 0.00 0.10 0.10 83 1009.0
20260506225359 20 7 0.0 1.6 0.00 0.10 0.10 83 1009.4
20260506224856 20 7 0.0 1.6 0.00 0.10 0.10 83 1009.2
20260506224353 20 7 0.0 0.0 0.00 0.10 0.10 82 1009.2
20260506223849 21 7 0.0 0.0 0.00 0.10 0.10 82 1009.2
20260506223345 21 7 0.0 1.6 0.00 0.10 0.10 81 1009.1
20260506222842 21 6 0.0 1.6 0.00 0.10 0.10 81 1009.4
20260506222338 21 6 0.0 1.6 0.00 0.10 0.10 82 1009.3
20260506221836 20 6 0.0 1.6 0.00 0.10 0.10 82 1009.3
20260506221333 20 5 1.6 3.2 0.00 0.10 0.10 81 1009.1
20260506220831 21 2 0.0 1.6 0.00 0.10 0.10 80 1009.3
20260506220326 21 19 0.0 1.6 0.00 0.10 0.10 81 1009.2
20260506215823 21 19 0.0 1.6 0.00 0.10 0.10 81 1009.0
20260506215318 21 19 0.0 3.2 0.00 0.10 0.10 80 1009.2
20260506214814 21 18 0.0 1.6 0.00 0.10 0.10 80 1009.2
20260506214311 21 19 0.0 1.6 0.00 0.10 0.10 81 1008.9
20260506213810 21 14 0.0 3.2 0.00 0.10 0.10 81 1009.2
20260506213307 21 303 0.0 1.6 0.00 0.10 0.10 81 1009.0
20260506212804 21 349 0.0 1.6 0.00 0.10 0.10 81 1008.7
20260506212259 21 349 0.0 3.2 0.00 0.10 0.10 80 1009.0
20260506211754 21 349 0.0 3.2 0.00 0.10 0.10 81 1009.0
20260506211251 21 350 1.6 3.2 0.00 0.10 0.10 81 1008.9
20260506210748 21 350 0.0 1.6 0.00 0.10 0.10 80 1009.0
20260506210245 21 349 1.6 1.6 0.00 0.10 0.10 79 1008.8
20260506205742 21 350 1.6 1.6 0.00 0.10 0.10 80 1008.8
20260506205238 21 350 0.0 1.6 0.00 0.10 0.10 81 1008.7
20260506204735 21 273 0.0 1.6 0.00 0.10 0.10 81 1008.8
20260506204232 21 273 1.6 4.8 0.00 0.10 0.10 80 1008.9
20260506203730 21 301 0.0 3.2 0.00 0.10 0.10 80 1008.6
20260506203227 21 119 1.6 3.2 0.00 0.10 0.10 80 1008.6
20260506202725 21 117 0.0 1.6 0.00 0.10 0.10 81 1008.8
20260506202221 20 131 1.6 3.2 0.00 0.10 0.10 81 1008.6
20260506201718 20 174 1.6 4.8 0.00 0.10 0.10 80 1008.6
20260506201215 21 98 1.6 3.2 0.00 0.10 0.10 81 1008.7
20260506200712 20 34 3.2 3.2 0.00 0.10 0.10 81 1008.7
20260506200208 20 287 1.6 3.2 0.00 0.10 0.10 81 1008.6
20260506195705 20 126 0.0 3.2 0.00 0.10 0.10 81 1008.7
20260506195201 20 47 0.0 3.2 0.00 0.10 0.10 82 1008.6
20260506194659 20 25 1.6 4.8 0.00 0.10 0.10 83 1008.8
20260506194155 20 97 0.0 4.8 0.00 0.10 0.10 83 1009.1
20260506193652 20 158 1.6 3.2 0.00 0.10 0.10 84 1008.9
20260506193149 19 112 1.6 3.2 0.00 0.10 0.10 84 1009.1
20260506192646 19 77 0.0 1.6 0.00 0.10 0.10 85 1009.1
20260506192142 19 97 0.0 3.2 0.00 0.10 0.10 85 1009.2
20260506191639 19 46 0.0 3.2 0.00 0.10 0.10 85 1009.3
20260506191135 19 75 0.0 4.8 0.00 0.10 0.10 85 1009.3
20260506190633 18 338 1.6 3.2 0.00 0.10 0.10 85 1009.2
20260506190129 18 342 1.6 3.2 0.00 0.10 0.10 85 1009.4
20260506185627 18 277 1.6 8.0 0.00 0.10 0.10 85 1009.2
20260506185123 18 307 1.6 3.2 0.00 0.10 0.10 86 1009.3
20260506184620 18 297 1.6 4.8 0.00 0.10 0.10 86 1009.3
20260506184117 18 73 1.6 4.8 0.00 0.10 0.10 86 1009.4
20260506183614 18 113 0.0 4.8 0.00 0.10 0.10 86 1009.5
20260506183110 18 116 1.6 3.2 0.00 0.10 0.10 86 1009.5
20260506182608 18 42 1.6 3.2 0.00 0.10 0.10 86 1009.4
20260506182104 18 83 0.0 3.2 0.00 0.10 0.10 86 1009.7
20260506181602 18 311 1.6 3.2 0.00 0.10 0.10 87 1009.6
20260506181059 18 65 0.0 3.2 0.00 0.10 0.10 87 1009.4
20260506180556 18 2 1.6 3.2 0.00 0.10 0.10 88 1009.7
20260506180052 18 31 3.2 3.2 0.00 0.10 0.10 88 1009.8
20260506175549 18 82 0.0 3.2 0.00 0.10 0.10 88 1010.0
20260506175045 18 293 1.6 3.2 0.00 0.10 0.10 88 1010.0
20260506174544 18 37 1.6 3.2 0.00 0.10 0.10 88 1009.5
20260506174039 18 11 1.6 3.2 0.00 0.10 0.10 88 1010.0
20260506173537 18 2 1.6 3.2 0.00 0.10 0.10 89 1009.7
20260506173034 18 36 1.6 1.6 0.00 0.10 0.10 90 1010.0
20260506172532 17 342 0.0 4.8 0.00 0.10 0.10 90 1009.9
20260506172027 17 4 1.6 3.2 0.00 0.10 0.10 90 1010.1
20260506171525 17 59 1.6 3.2 0.00 0.10 0.10 91 1010.3
20260506171022 17 82 1.6 3.2 0.00 0.10 0.10 91 1010.2
20260506170520 17 69 1.6 4.8 0.00 0.10 0.10 91 1010.1
20260506170012 17 84 1.6 3.2 0.00 0.10 0.10 91 1010.0
20260506165510 17 52 1.6 3.2 0.00 0.10 0.10 91 1010.1
20260506165006 17 272 1.6 4.8 0.00 0.10 0.10 92 1010.3
20260506164503 17 69 0.0 8.0 0.00 0.10 0.10 93 1010.1
20260506164000 17 58 1.6 4.8 0.00 0.10 0.10 92 1010.2
20260506163455 17 312 1.6 3.2 0.00 0.10 0.10 94 1010.1
20260506162950 17 29 1.6 3.2 0.00 0.10 0.10 95 1010.4
20260506162448 17 40 1.6 4.8 0.00 0.10 0.10 94 1010.6
20260506161945 17 354 0.0 1.6 0.00 0.10 0.10 95 1010.5
20260506161443 17 62 1.6 3.2 0.00 0.10 0.10 95 1010.4
20260506160940 17 358 1.6 3.2 0.18 0.10 0.10 95 1010.4
20260506160438 17 101 0.0 3.2 0.30 0.10 0.10 94 1010.4
20260506155935 17 121 1.6 1.6 0.13 0.08 0.08 94 1010.7
20260506155432 17 122 1.6 3.2 0.00 0.05 0.05 93 1010.8
20260506153554 17 129 1.6 1.6 0.00 0.03 0.03 90 1011.4
20260506153051 17 298 1.6 4.8 0.18 0.03 0.03 88 1011.3
20260506152548 17 51 3.2 3.2 0.18 0.03 0.03 86 1011.4
20260506152046 17 54 1.6 3.2 0.00 0.00 0.00 87 1011.6
20260506151544 17 110 1.6 3.2 0.00 0.00 0.00 85 1011.2
20260506151041 18 43 3.2 3.2 0.00 0.00 0.00 85 1011.2
20260506150537 18 43 0.0 3.2 0.00 0.00 0.00 83 1011.2
20260506150034 18 350 0.0 4.8 0.00 0.00 0.00 80 1011.4
20260506145531 18 116 1.6 3.2 0.00 0.00 0.00 81 1011.1
20260506145028 18 83 1.6 8.0 0.00 0.00 0.00 80 1011.4
20260506144525 19 10 1.6 3.2 0.00 0.00 0.00 79 1011.1
20260506144022 19 288 1.6 8.0 0.00 0.00 0.00 77 1011.2
20260506143520 20 88 0.0 1.6 0.00 0.00 0.00 76 1011.3
20260506143018 20 18 1.6 3.2 0.00 0.00 0.00 74 1011.3
20260506142516 20 331 1.6 4.8 0.00 0.00 0.00 73 1011.3
20260506142014 20 287 3.2 4.8 0.00 0.00 0.00 72 1011.3
20260506141511 20 92 1.6 3.2 0.00 0.00 0.00 74 1011.3
20260506141009 20 109 1.6 3.2 0.00 0.00 0.00 74 1011.2
20260506140506 20 160 3.2 4.8 0.00 0.00 0.00 72 1011.4
20260506140004 20 28 3.2 4.8 0.00 0.00 0.00 71 1011.4
20260506135500 20 31 3.2 4.8 0.00 0.00 0.00 72 1011.2
20260506134956 20 142 3.2 4.8 0.00 0.00 0.00 70 1011.3
20260506134452 20 60 1.6 3.2 0.00 0.00 0.00 70 1011.2
20260506133949 20 23 1.6 3.2 0.00 0.00 0.00 70 1011.0
20260506133446 20 358 1.6 4.8 0.00 0.00 0.00 70 1011.1
20260506132943 20 6 3.2 4.8 0.00 0.00 0.00 71 1010.9
20260506132440 20 149 1.6 3.2 0.00 0.00 0.00 71 1011.2
20260506131937 20 57 0.0 3.2 0.00 0.00 0.00 72 1011.0
20260506131434 20 119 1.6 3.2 0.00 0.00 0.00 72 1011.2
20260506130931 19 195 1.6 4.8 0.00 0.00 0.00 72 1011.0
20260506130428 19 297 1.6 3.2 0.00 0.00 0.00 74 1011.2
20260506125926 19 65 1.6 1.6 0.00 0.00 0.00 74 1011.2
20260506125424 19 53 1.6 3.2 0.00 0.00 0.00 74 1011.1
20260506124922 19 211 3.2 4.8 0.00 0.00 0.00 74 1011.4
20260506124419 19 189 1.6 3.2 0.00 0.00 0.00 74 1011.3
20260506123916 19 322 1.6 3.2 0.00 0.00 0.00 75 1011.2
20260506123414 19 261 3.2 4.8 0.00 0.00 0.00 75 1011.1
20260506122911 19 4 1.6 3.2 0.00 0.00 0.00 76 1011.3
20260506122408 19 293 3.2 3.2 0.00 0.00 0.00 75 1011.6
20260506121907 19 83 1.6 3.2 0.00 0.00 0.00 76 1011.4
20260506121403 19 320 1.6 8.0 0.00 0.00 0.00 76 1011.1
20260506120900 19 45 1.6 3.2 0.00 0.00 0.00 76 1011.3
20260506120357 18 312 1.6 4.8 0.00 0.00 0.00 76 1010.9
20260506115855 18 302 3.2 4.8 0.00 0.00 0.00 77 1011.2
20260506115353 18 247 1.6 4.8 0.00 0.00 0.00 77 1011.0
20260506114851 18 271 1.6 4.8 0.00 0.00 0.00 78 1011.1
20260506114348 18 28 1.6 3.2 0.00 0.00 0.00 78 1011.0
20260506113847 18 312 0.0 3.2 0.00 0.00 0.00 78 1010.8
20260506113344 18 264 1.6 4.8 0.00 0.00 0.00 79 1011.1
20260506112840 18 343 1.6 3.2 0.00 0.00 0.00 79 1010.7
20260506112338 18 261 1.6 3.2 0.00 0.00 0.00 79 1011.1
20260506111835 18 272 1.6 3.2 0.00 0.00 0.00 79 1010.9
20260506111333 18 295 1.6 3.2 0.00 0.00 0.00 79 1011.0
20260506110830 18 86 0.0 3.2 0.00 0.00 0.00 79 1010.9
20260506110327 18 117 0.0 4.8 0.00 0.00 0.00 79 1010.9
20260506105824 18 66 1.6 3.2 0.00 0.00 0.00 79 1010.8
20260506105320 18 83 1.6 3.2 0.00 0.00 0.00 79 1010.7
20260506104818 18 84 1.6 4.8 0.00 0.00 0.00 79 1011.0
20260506104316 18 342 1.6 3.2 0.00 0.00 0.00 79 1010.8
20260506103813 18 217 1.6 4.8 0.00 0.00 0.00 79 1010.8
20260506090259 18 253 1.6 3.2 0.00 0.00 0.00 79 1010.8
20260506085755 18 253 1.6 3.2 0.00 0.00 0.00 79 1010.8
20260506085252 18 253 1.6 3.2 0.00 0.00 0.00 79 1010.8
20260506084748 18 265 1.6 3.2 0.00 0.00 0.00 79 1010.9
20260506084245 18 131 1.6 4.8 0.00 0.00 0.00 79 1010.9
20260506083742 18 298 0.0 1.6 0.00 0.00 0.00 79 1010.7
20260506083239 18 352 1.6 3.2 0.00 0.00 0.00 78 1010.7
20260506082737 18 53 1.6 1.6 0.00 0.00 0.00 78 1010.8
20260506082232 18 88 0.0 3.2 0.00 0.00 0.00 78 1010.7
20260506081730 19 106 1.6 1.6 0.00 0.00 0.00 78 1010.8
20260506081227 19 275 0.0 4.8 0.00 0.00 0.00 77 1010.7
20260506080725 18 121 1.6 3.2 0.00 0.00 0.00 77 1010.8
20260506080221 18 54 1.6 3.2 0.00 0.00 0.00 78 1011.1
20260506073206 19 96 0.0 3.2 0.00 0.00 0.00 77 1011.1
20260506072702 18 91 0.0 1.6 0.00 0.00 0.00 78 1011.3
20260506072200 19 71 0.0 1.6 0.00 0.00 0.00 78 1011.1
20260506071657 19 62 1.6 3.2 0.00 0.00 0.00 77 1011.1
20260506071155 18 97 1.6 1.6 0.00 0.00 0.00 78 1011.2
20260506070651 18 339 0.0 1.6 0.00 0.00 0.00 78 1011.2
20260506070148 19 319 0.0 1.6 0.00 0.00 0.00 78 1011.0
20260506062126 20 39 1.6 1.6 0.00 0.00 0.00 77 1011.4
20260506061621 20 53 0.0 1.6 0.00 0.00 0.00 76 1011.4
20260506061120 20 323 1.6 3.2 0.00 0.00 0.00 75 1011.3
20260506060618 20 107 0.0 4.8 0.00 0.00 0.00 75 1011.6
20260506060114 20 94 0.0 3.2 0.00 0.00 0.00 75 1011.5
20260506051046 20 137 1.6 3.2 0.00 0.00 0.00 72 1011.7
20260506050544 20 344 3.2 4.8 0.00 0.00 0.00 71 1011.8
20260506045034 20 285 1.6 1.6 0.00 0.00 0.00 70 1011.8
20260506044532 20 48 1.6 1.6 0.00 0.00 0.00 69 1011.7
20260506044029 20 78 0.0 3.2 0.00 0.00 0.00 69 1011.6
20260506043526 20 63 1.6 3.2 0.00 0.00 0.00 69 1011.8
20260506043025 21 37 0.0 3.2 0.00 0.00 0.00 68 1011.6
20260506042523 21 342 0.0 3.2 0.00 0.00 0.00 67 1011.8
20260506042021 21 260 0.0 4.8 0.00 0.00 0.00 67 1011.9
20260506041519 21 56 1.6 3.2 0.00 0.00 0.00 66 1011.8
20260506041016 21 315 1.6 3.2 0.00 0.00 0.00 66 1012.0
20260506040514 21 58 0.0 3.2 0.00 0.00 0.00 66 1011.7
20260506040009 21 86 0.0 3.2 0.00 0.00 0.00 65 1012.1
20260506035506 21 71 3.2 4.8 0.00 0.00 0.00 65 1011.7
20260506035003 21 82 1.6 1.6 0.00 0.00 0.00 66 1011.7
20260506034501 21 98 0.0 3.2 0.00 0.00 0.00 64 1011.7
20260506033957 21 42 1.6 3.2 0.00 0.00 0.00 65 1011.5
20260506033455 21 115 1.6 4.8 0.00 0.00 0.00 64 1011.8
20260506032951 21 85 1.6 3.2 0.00 0.00 0.00 63 1011.7
20260506032449 21 92 1.6 3.2 0.00 0.00 0.00 63 1011.6
20260506031945 21 54 1.6 3.2 0.00 0.00 0.00 63 1011.6
20260506031443 21 100 0.0 1.6 0.00 0.00 0.00 63 1011.6
20260506030940 21 50 1.6 3.2 0.00 0.00 0.00 62 1011.8
20260506030438 21 43 0.0 3.2 0.00 0.00 0.00 62 1012.0
20260506025934 21 267 1.6 3.2 0.00 0.00 0.00 62 1011.7
20260506025431 21 257 3.2 3.2 0.00 0.00 0.00 61 1011.7
20260506024928 21 308 1.6 1.6 0.00 0.00 0.00 62 1011.8
20260506024425 21 290 0.0 1.6 0.00 0.00 0.00 62 1012.0
20260506023921 21 115 1.6 1.6 0.00 0.00 0.00 62 1012.1
20260506023418 21 74 0.0 3.2 0.00 0.00 0.00 61 1011.9
20260506022914 21 76 1.6 1.6 0.00 0.00 0.00 61 1012.0
20260506022412 21 100 0.0 1.6 0.00 0.00 0.00 61 1012.0
20260506021910 21 118 0.0 1.6 0.00 0.00 0.00 62 1012.1
20260506021407 21 132 0.0 1.6 0.00 0.00 0.00 61 1011.9
20260506020904 21 121 1.6 1.6 0.00 0.00 0.00 61 1012.0
20260506020402 21 258 1.6 3.2 0.00 0.00 0.00 60 1011.9
20260506015859 22 260 1.6 1.6 0.00 0.00 0.00 60 1011.8
20260506015356 22 261 1.6 1.6 0.00 0.00 0.00 60 1011.9
20260506014853 22 264 1.6 1.6 0.00 0.00 0.00 59 1011.8
20260506014350 22 92 1.6 1.6 0.00 0.00 0.00 58 1011.6
20260506013846 22 120 1.6 3.2 0.00 0.00 0.00 58 1011.7
20260506013344 22 100 0.0 1.6 0.00 0.00 0.00 58 1011.6
20260506012840 22 86 1.6 1.6 0.00 0.00 0.00 58 1011.6
20260506012337 22 56 1.6 3.2 0.00 0.00 0.00 57 1011.3
20260506011835 22 80 0.0 1.6 0.00 0.00 0.00 57 1011.2
20260506011331 22 126 0.0 1.6 0.00 0.00 0.00 57 1011.2
20260506010829 22 83 1.6 1.6 0.00 0.00 0.00 56 1011.3
20260506010326 22 65 1.6 1.6 0.00 0.00 0.00 56 1011.1
20260506005823 23 106 0.0 3.2 0.00 0.00 0.00 55 1011.2
20260506005320 23 113 1.6 1.6 0.00 0.00 0.00 54 1011.0
20260506004816 23 108 0.0 3.2 0.00 0.00 0.00 54 1011.1
20260506004314 23 86 1.6 1.6 0.00 0.00 0.00 53 1011.1
20260506003809 23 86 0.0 3.2 0.00 0.00 0.00 53 1010.8
20260506003306 23 126 1.6 1.6 0.00 0.00 0.00 53 1011.0
20260506002802 23 92 0.0 1.6 0.00 0.00 0.00 52 1010.9
20260506002259 23 278 1.6 3.2 0.00 0.00 0.00 51 1010.7
20260506001754 23 90 0.0 3.2 0.00 0.00 0.00 52 1010.8
20260506001252 23 106 1.6 1.6 0.00 0.00 0.00 51 1010.5
20260506000749 23 125 1.6 1.6 0.00 0.00 0.00 51 1010.5
20260506000247 23 60 1.6 3.2 0.00 0.00 0.00 51 1010.6
20260505235743 23 117 1.6 3.2 0.00 0.00 0.00 51 1010.3
20260505235241 23 112 1.6 4.8 0.00 0.00 0.00 50 1010.3
20260505234737 24 111 1.6 4.8 0.00 0.00 0.00 50 1010.3
20260505234235 24 117 1.6 3.2 0.00 0.00 0.00 49 1010.6
20260505233731 25 235 1.6 1.6 0.00 0.00 0.00 48 1010.5
20260505233230 25 242 0.0 3.2 0.00 0.00 0.00 47 1010.4
20260505232726 25 39 0.0 3.2 0.00 0.00 0.00 48 1010.5
20260505232224 25 354 1.6 4.8 0.00 0.00 0.00 47 1010.6